CST,Max TemperatureF,Mean TemperatureF,Min TemperatureF,Max Dew PointF,MeanDew PointF,Min DewpointF,Max Humidity, Mean Humidity, Min Humidity, Max Sea Level PressureIn, Mean Sea Level PressureIn, Min Sea Level PressureIn, Max VisibilityMiles, Mean VisibilityMiles, Min VisibilityMiles, Max Wind SpeedMPH, Mean Wind SpeedMPH, Max Gust SpeedMPH,PrecipitationIn, CloudCover, Events, WindDirDegrees
2013-10-1,90,84,77,81,79,76,94,83,66,29.97,29.92,29.81,17,9,6,14,4,,0.00,3,Thunderstorm,243
2013-10-2,91,84,76,79,78,76,100,85,64,29.97,29.89,29.82,17,8,6,9,3,,0.35,4,Rain-Thunderstorm,284
2013-10-3,87,80,73,81,78,75,100,86,68,29.95,29.90,29.85,17,8,6,7,2,,0.00,6,Thunderstorm,255
2013-10-4,89,82,74,77,75,68,100,76,49,29.97,29.91,29.86,17,9,6,7,3,,0.00,6,,315
2013-10-5,91,88,84,76,75,73,74,66,55,29.94,29.89,29.84,17,9,6,12,7,,0.00,3,,240
2013-10-6,89,82,75,77,76,74,100,77,54,29.96,29.90,29.84,17,9,6,14,3,,0.12,6,Thunderstorm,249
2013-10-7,90,82,74,76,75,74,100,78,54,29.95,29.92,29.85,17,10,6,12,4,,0.00,5,Thunderstorm,209
2013-10-8,92,84,75,77,76,73,100,80,59,29.96,29.94,29.91,17,9,6,14,5,,0.20,5,Rain-Thunderstorm,298
2013-10-9,93,84,75,81,78,75,100,81,59,29.99,29.94,29.87,16,7,6,9,4,,0.00,5,,284
2013-10-10,93,84,74,81,76,72,94,71,50,29.95,29.91,29.84,9,6,6,14,5,,0.00,4,Thunderstorm,84
2013-10-11,93,84,76,79,76,72,94,77,54,29.94,29.90,29.86,9,6,6,12,4,,0.00,3,Thunderstorm,301
2013-10-12,92,84,75,79,76,73,94,80,60,29.94,29.93,29.91,9,6,6,9,2,,2.76,2,,352
2013-10-13,95,85,75,77,75,72,94,67,42,29.95,29.90,29.83,9,7,6,14,5,,0.00,3,Thunderstorm,302
2013-10-14,92,84,75,79,77,73,94,78,59,29.95,29.89,29.81,12,8,6,7,2,,0.00,4,,238
2013-10-15,91,82,72,81,78,75,100,82,60,29.96,29.91,29.84,12,8,6,12,2,,0.87,4,Thunderstorm,234
2013-10-16,87,82,76,81,79,77,100,84,72,29.97,29.95,29.94,12,7,6,12,3,,0.00,3,Rain-Thunderstorm,230
2013-10-17,89,84,78,79,78,77,100,86,70,29.94,29.90,29.85,12,7,6,7,3,,0.00,5,,230
2013-10-18,90,84,78,81,79,77,98,87,74,29.94,29.88,29.85,12,7,6,12,3,,0.00,5,,240
2013-10-19,87,81,75,78,76,73,94,80,66,29.98,29.98,29.98,9,6,6,14,4,,0.55,5,Thunderstorm,257
2013-10-20,89,81,73,76,75,73,100,80,62,29.97,29.91,29.86,17,8,6,9,2,,0.00,6,Thunderstorm,315
2013-10-21,89,82,75,77,75,73,89,74,56,29.96,29.94,29.93,17,8,6,9,4,,0.00,3,,256
2013-10-22,91,84,76,75,74,73,94,69,49,29.96,29.90,29.84,17,8,6,5,3,,0.00,2,,6
2013-10-23,90,82,75,77,75,73,100,77,54,29.93,29.89,29.83,17,9,6,9,3,,0.08,4,Thunderstorm,278
2013-10-24,93,84,75,79,77,75,100,83,63,29.94,29.89,29.83,16,7,6,9,4,,0.01,4,Thunderstorm,307
2013-10-25,94,86,77,79,77,75,94,79,56,29.97,29.91,29.84,9,7,6,14,9,,0.28,4,Rain-Thunderstorm,5
2013-10-26,93,85,77,79,76,73,94,79,55,29.97,29.92,29.84,17,7,6,9,4,,0.00,5,,10
2013-10-27,91,83,75,79,77,74,100,84,62,29.97,29.91,29.85,9,6,6,14,4,,0.91,5,Thunderstorm,295
2013-10-28,92,84,77,79,76,73,94,81,61,29.98,29.95,29.91,9,6,5,17,5,,0.02,5,Thunderstorm,325
2013-10-29,92,84,77,79,77,70,100,84,60,30.00,29.94,29.87,12,8,6,9,4,,0.87,5,Rain-Thunderstorm,9
2013-10-30,94,86,78,81,78,76,100,81,55,30.00,29.95,29.88,12,8,6,9,3,,0.00,4,,24
2013-10-31,92,84,77,81,78,75,96,81,59,29.97,29.93,29.88,12,8,6,9,2,,0.35,3,Rain-Thunderstorm,325